Change the Weather History Date:

Friday, January 11, 2013

  Actual Average Record
Temperature  
Mean Temperature 20 °F 27 °F  
Max Temperature 38 °F 37 °F 56 °F (1956)
Min Temperature 1 °F 16 °F -16 °F (1963)
Degree Days  
Heating Degree Days 45 38  
Month to date heating degree days 596 422  
Since 1 July heating degree days 2876 2781  
Cooling Degree Days 0 0  
Month to date cooling degree days 0 0  
Year to date cooling degree days 0 0  
Moisture  
Dew Point 15 °F    
Average Humidity 68    
Maximum Humidity 100    
Minimum Humidity 36    
Precipitation  
Precipitation 0.13 in 0.02 in 0.52 in (1905)
Month to date precipitation 0.14 0.22  
Year to date precipitation 0.14 0.22  
Snow  
Snow 0.70 in 0.20 in 5.60 in (1905)
Month to date snowfall 0.8 2.1  
Since 1 July snowfall 13.8 9.5  
Snow Depth 4.00 in    
Sea Level Pressure  
Sea Level Pressure 29.70 in    
Wind  
Wind Speed 10 mph (WNW)    
Max Wind Speed 25 mph    
Max Gust Speed 33 mph    
Visibility 9 miles    
Events Fog , Rain , Snow    
T = Trace of Precipitation, MM = Missing Value Source: NWS Daily Summary

Daily Weather History Graph

Daily Weather History Graph

Search for Another Location

Airport or City:

Trip Planner

Search our weather history database for the weather conditions in past years. The results will help you decide how hot, cold, wet, or windy it might be!

Date:

Astronomy

Jan. 11, 2013 Rise Set
Actual Time 7:32 AM MST 5:11 PM MST
Civil Twilight 7:03 AM MST 5:41 PM MST
Nautical Twilight 6:30 AM MST 6:14 PM MST
Astronomical Twilight 5:58 AM MST 6:46 PM MST
Moon 7:08 AM MST (1/11) 5:33 PM MST (1/11)
Length of Visible Light 10h 37m
Length of Day
9h 38m
Waning Crescent, 0% of the Moon is Illuminated
Jan 11
Waning Crescent
Jan 11
New
Jan 18
First Quarter
Jan 26
Full
Feb 3
Last Quarter

Hourly Weather History & Observations

Time (MST) Temp. Windchill Dew Point Humidity Pressure Visibility Wind Dir Wind Speed Gust Speed Precip Events Conditions
12:53 AM 37.0 °F 27.7 °F 30.0 °F 76% 29.49 in 10.0 mi SSE 16.1 mph - 0.00 in Rain Light Rain
1:53 AM 37.0 °F 27.0 °F 28.0 °F 70% 29.48 in 10.0 mi West 18.4 mph 27.6 mph 0.00 in   Overcast
1:55 AM 35.6 °F 25.2 °F 28.4 °F 75% 29.46 in 10.0 mi West 18.4 mph 27.6 mph 0.00 in Rain Light Rain
2:04 AM 30.2 °F 18.9 °F 30.2 °F 100% 29.48 in 2.5 mi West 16.1 mph 28.8 mph 0.00 in Snow Light Snow
2:14 AM 28.4 °F 14.4 °F 28.4 °F 100% 29.49 in 0.8 mi West 23.0 mph 29.9 mph 0.00 in Snow Light Snow
2:29 AM 28.4 °F 16.6 °F 28.4 °F 100% 29.50 in 0.2 mi West 16.1 mph 25.3 mph 0.06 in Fog , Snow Heavy Snow
2:45 AM 28.4 °F 19.1 °F 28.4 °F 100% 29.50 in 1.0 mi West 10.4 mph - 0.12 in Snow Light Snow
2:53 AM 28.0 °F 18.6 °F 28.0 °F 100% 29.54 in 1.2 mi NW 10.4 mph - 0.13 in Snow Light Snow
3:00 AM 28.4 °F 20.4 °F 28.4 °F 100% 29.48 in 3.0 mi NW 8.1 mph - 0.00 in Snow Light Snow
3:10 AM 26.6 °F 15.2 °F 26.6 °F 100% 29.47 in 8.0 mi NNW 13.8 mph - 0.00 in Snow Light Snow
3:53 AM 27.0 °F 18.0 °F 26.1 °F 96% 29.50 in 10.0 mi NW 9.2 mph - 0.00 in   Overcast
4:53 AM 24.1 °F 15.2 °F 23.0 °F 96% 29.47 in 10.0 mi NNW 8.1 mph - N/A   Scattered Clouds
5:53 AM 21.9 °F 11.0 °F 18.0 °F 85% 29.51 in 10.0 mi WNW 10.4 mph - N/A   Scattered Clouds
6:53 AM 25.0 °F 13.1 °F 14.0 °F 63% 29.57 in 10.0 mi WSW 13.8 mph - N/A   Scattered Clouds
7:43 AM 21.2 °F 6.4 °F 19.4 °F 93% 29.59 in 10.0 mi WNW 18.4 mph - N/A   Overcast
7:53 AM 21.9 °F 7.8 °F 19.9 °F 92% 29.65 in 10.0 mi WNW 17.3 mph - N/A   Overcast
8:53 AM 23.0 °F 8.3 °F 16.0 °F 74% 29.68 in 10.0 mi WSW 19.6 mph - 0.00 in   Mostly Cloudy
9:53 AM 25.0 °F 14.8 °F 14.0 °F 63% 29.68 in 10.0 mi West 10.4 mph - N/A   Mostly Cloudy
10:53 AM 21.0 °F 7.1 °F 12.0 °F 68% 29.73 in 10.0 mi NW 16.1 mph - N/A   Mostly Cloudy
11:53 AM 21.9 °F 9.2 °F 12.0 °F 66% 29.73 in 10.0 mi WNW 13.8 mph - N/A   Mostly Cloudy
12:02 PM 23.0 °F 11.1 °F 10.4 °F 59% 29.69 in 10.0 mi WNW 12.7 mph - N/A   Mostly Cloudy
12:53 PM 23.0 °F 10.6 °F 8.6 °F 54% 29.70 in 10.0 mi NW 13.8 mph - N/A   Mostly Cloudy
1:53 PM 21.9 °F 12.5 °F 10.9 °F 63% 29.75 in 10.0 mi North 8.1 mph - N/A   Mostly Cloudy
2:53 PM 21.9 °F 10.4 °F 9.0 °F 58% 29.82 in 10.0 mi NW 11.5 mph - N/A   Mostly Cloudy
3:53 PM 24.1 °F 14.4 °F 9.0 °F 53% 29.84 in 10.0 mi North 9.2 mph - N/A   Partly Cloudy
4:53 PM 24.1 °F 17.0 °F 3.0 °F 40% 29.87 in 10.0 mi WNW 5.8 mph - N/A   Mostly Cloudy
5:53 PM 24.1 °F 17.0 °F 1.9 °F 38% 29.91 in 10.0 mi Variable 5.8 mph 18.4 mph N/A   Overcast
6:53 PM 19.0 °F 13.9 °F 1.0 °F 46% 29.94 in 10.0 mi WNW 3.5 mph - N/A   Clear
7:53 PM 7.0 °F -1.7 °F -2.0 °F 67% 30.01 in 10.0 mi ENE 4.6 mph - N/A   Clear
8:53 PM 12.0 °F 5.9 °F -0.0 °F 59% 30.00 in 10.0 mi East 3.5 mph - N/A   Mostly Cloudy
9:53 PM 10.0 °F - -0.9 °F 61% 30.01 in 10.0 mi Calm Calm - N/A   Partly Cloudy
10:53 PM 10.9 °F - -2.0 °F 56% 30.04 in 10.0 mi Calm Calm - N/A   Scattered Clouds
11:53 PM 3.9 °F -6.9 °F -4.0 °F 70% 30.07 in 10.0 mi East 5.8 mph - N/A   Clear